Terug naar catalogus

STARLINK-34273

ActiefCommunicatieVLEO
NORAD 64905·PAYLOAD·🇺🇸 United States

Gelanceerd Jul 26, 2025 vanaf Cape Canaveral Space Force Station

Loading…

Volgende Passages (komende 24 uur)

TLE

VersSource: CelesTrak SupGP

Epoch: Sep 15, 2026, 02:34 UTC

1 64905C 25157B   26258.10743056 -.00055189  00000+0 -16304-2 0  2586
2 64905  53.1579 182.6497 0001282  76.7311 136.0733 15.34420642    16

Volg STARLINK-34273 in realtime met AllMySat

Download on the App Store